Усмат

Узбекистан     39°44′22″N   67°38′41″E
темп.,
°C
ветер,
м/с
пор.,
м/с
влажн.,
%
обл.,
%
осадки,
мм/ч
давл.,
гПа
погр.,
м
23 октября, сб
сб2323:00+1вюв23724 0.0 103481
02:00+1вюв227016 0.0 103324
05:00+1в33650 0.0 103143
08:00+3в35542 0.0 1030143
11:00+8св35390 0.0 1027479
14:00+9всв45400 0.0 1025583
17:00+7всв45450 0.0 1025429
20:00+4в57555 0.0 1028240
24 октября, вс
вс2423:00+4в45545 0.0 102697
02:00+4вюв45480 0.0 102357
05:00+5вюв33410 0.0 102125
08:00+7вюв33330 0.0 102039
11:00+12с22230 0.0 1018454
14:00+14ссз22240 0.0 1016647
17:00+11св22330 0.0 101691
20:00+10вюв22350 0.0 101623
25 октября, пн
пн2523:00+10ююв11300 0.0 101510
02:00+9ю22300 0.0 101510
05:00+8ю22300 0.0 101510
08:00+9ю22250 0.0 101611
11:00+14з32190 0.0 1016544
14:00+15зсз43180 0.0 1015865
17:00+13зсз2222100 0.0 101668
20:00+10ююз1125100 0.0 101810
26 октября, вт
вт2623:00+9ююз222650 0.0 101812
02:00+8ююз222798 0.0 101910
05:00+9юв2225100 0.0 101915
08:00+10ююв222581 0.0 102019
11:00+14з33235 0.0 1020741
14:00+15з55240 0.0 10191400
17:00+13зсз34251 0.0 1020367
20:00+10ююз2231100 0.0 102211
27 октября, ср
ср2723:00+9ююз2231100 0.0 102312
02:00+9ююв1132100 0.0 102310
05:00+8ююв1135100 0.0 102310
08:00+9ююв0134100 0.0 102410
11:00+12сз2128100 0.0 1024529
14:00+12ссз3229100 0.0 1023717
17:00+10с2136100 0.0 1023285
20:00+9всв2243100 0.0 102577